Location: Kosice
(0.0000°N, 21.2500°E)
Time: 06:04:25
(UTC+01:00)

Cosmos 1943 Rocket - Pass Details

Date: 24 January 2021
Orbit: 810 x 845 km, 71.0° (Epoch: 04 March)

Event Time Altitude Azimuth Distance (km) Brightness Sun altitude
Rises 19:42:18 0° 209° (SSW) 3,327 6.0 -27.1°
Reaches altitude 10° 19:44:49 10° 216° (SW) 2,394 5.2 -27.7°
Maximum altitude 19:49:57 42° 285° (WNW) 1,151 3.2 -28.8°
Enters shadow 19:51:55 31° 330° (NNW) 1,405 3.3 -29.3°
